This is the latest recevied weather packets stored in our database for station/object KA3RQR. If no packets are shown the sender has not sent any weather packets the latest 10 day(s).
| Time | Temp. | Humidity | Pressure | Rain* | Wind** | Luminosity | Snow |
|---|---|---|---|---|---|---|---|
| 1777581221 | 17.78° C | 41% | 1008.9 hPa | 0 mm | - | 556 W/m² | - |
| 1777580921 | 17.78° C | 42% | 1008.8 hPa | 0 mm | - | 106 W/m² | - |
| 1777580615 | 18.33° C | 41% | 1008.8 hPa | 0 mm | - | 133 W/m² | - |
| 1777580312 | 17.78° C | 42% | 1008.8 hPa | 0 mm | - | 99 W/m² | - |
| 1777580008 | 18.33° C | 41% | 1008.6 hPa | 0 mm | - | 124 W/m² | - |
| 1777579704 | 18.89° C | 40% | 1008.6 hPa | 0 mm | - | 101 W/m² | - |
| 1777579403 | 19.44° C | 40% | 1008.6 hPa | 0 mm | - | 575 W/m² | - |
| 1777579098 | 18.33° C | 40% | 1008.6 hPa | 0 mm | - | 105 W/m² | - |
| 1777578792 | 19.44° C | 39% | 1008.9 hPa | 0 mm | - | 138 W/m² | - |
| 1777578488 | 18.89° C | 45% | 1008.6 hPa | 0 mm | - | 645 W/m² | - |
| 1777578183 | 18.89° C | 40% | 1008.5 hPa | 0 mm | - | 100 W/m² | - |
| 1777577879 | 18.33° C | 40% | 1008.6 hPa | 0 mm | - | 103 W/m² | - |
| 1777577574 | 18.33° C | 42% | 1008.4 hPa | 0 mm | - | 114 W/m² | - |
| 1777577272 | 18.89° C | 42% | 1008.4 hPa | 0 mm | - | 130 W/m² | - |
| 1777576967 | 17.78° C | 41% | 1008.7 hPa | 0 mm | - | 128 W/m² | - |
| 1777576664 | 18.89° C | 43% | 1008.5 hPa | 0 mm | - | 422 W/m² | - |
| 1777576358 | 19.44° C | 42% | 1008.6 hPa | 0 mm | - | 349 W/m² | - |
| 1777576055 | 18.89° C | 41% | 1008.4 hPa | 0 mm | - | 128 W/m² | - |
| 1777575751 | 17.78° C | 45% | 1008.5 hPa | 0 mm | - | 88 W/m² | - |
| 1777575447 | 18.33° C | 43% | 1008.5 hPa | 0 mm | - | 77 W/m² | - |
| 1777575143 | 18.89° C | 42% | 1008.6 hPa | 0 mm | - | 101 W/m² | - |
| 1777574838 | 18.89° C | 44% | 1008.4 hPa | 0 mm | - | 152 W/m² | - |
| 1777574537 | 18.33° C | 41% | 1008.7 hPa | 0 mm | - | 104 W/m² | - |
| 1777574233 | 18.89° C | 43% | 1008.8 hPa | 0 mm | - | 73 W/m² | - |
| 1777573928 | 18.89° C | 43% | 1008.6 hPa | 0 mm | - | 292 W/m² | - |
* Rain latest hour (hover to see other rain measurements)
** Current wind speed in m/s (hover to see current wind gust speed)